Location: Kuffner-Sternwarte
(48.2130°N, 16.2960°E)
Time: 21:19:39
(UTC+02:00)

COROT - Visible Passes

Search period start: 29 July 2021 00:00
Search period end: 08 August 2021 00:00
Orbit: 599 x 888 km, 90.0° (Epoch: 29 July)

Date Brightness Start Highest point End Pass type
(mag) Time Alt. Az. Time Alt. Az. Time Alt. Az.
31 Jul 8.7 04:17:33 10° E 04:19:21 13° ENE 04:21:10 10° NE visible
02 Aug 8.4 04:28:51 10° ESE 04:31:53 19° ENE 04:34:55 10° NNE visible
04 Aug 7.7 04:40:46 10° SE 04:44:27 30° ENE 04:48:10 10° NNE visible
05 Aug 8.6 03:59:31 10° E 04:01:27 13° ENE 04:03:23 10° NE visible
06 Aug 6.7 04:53:02 10° SSE 04:57:05 47° E 05:01:12 10° N visible
07 Aug 8.3 04:10:52 10° ESE 04:13:57 20° ENE 04:17:06 10° NNE visible
